Hulianwang W. Digui 03-03

operational
NORAD ID: 63689 Int'l Des: 2025-086 Owner: ZXW Country: CN Constellation: xingwang
LEOCIRCULARPOLARONEWEB_TYPE

About Hulianwang W. Digui 03-03

Description loading...

Live Position

Loading 3D Globe...

Upcoming Passes

Altitude History

Altitude vs Time

uPlot chart will show altitude changes over time

Two-Line Element Set

1 63689U 25086C 25311.23078896 .00000102 00000-0 20371-3 0 9997
2 63689 86.5090 27.7993 0002084 107.4457 252.6905 13.24419401 25488
Epoch: Nov 7, 2025 • Age: 10 hours

Current Status

Altitude 1169.7 km
Velocity 7.27 km/s
Sub-Earth Point 22.79°N, 71.82°W
Launch Date Apr 28, 2025
Age 0.5 years
Type other

Technical Details

Classification Payload
Mass 800.00 kg
Dry Mass 800.00 kg
Total Mass 800.00 kg
Length 3.00 m
Diameter 1.00 m
Span 10.00 m
Shape Box + 2 Pan
Manufacturer CAST
Bus Type Guowang C
Phase Status In Orbit
Owner/State ZXW/CN

Large Constellations

Loading constellations...